Flag for France Weather past 2 weeks in Rodez, France

Now
43 °F

Clear.


Feels Like: 43 °F
Forecast: 47 / 66 °F
Wind: No wind

Location: Rodez Airport

Current Time: Oct 25, 2014 at 4:53:11 AM

Latest Report: Oct 25, 2014 at 4:00 AM


Visibility: N/A

Pressure: 30.12 "Hg

Humidity: 87%

Dew point: 39 °F

Location of RodezLocation

Historic Weather in Rodez — Graph

°F

Rodez temperature yesterday

Maximum temperature yesterday: 63 °F (at 4:00 PM)
Minimum temperature yesterday: 34 °F (at 7:30 AM)
Average temperature yesterday: 48 °F

Past Weeks' High & Low Weather Summary

 TemperatureHumidityPressure
High77 °F (Oct 18, 2:00 PM)100% (Oct 10, 4:00 AM)30.39 "Hg (Oct 10, 4:00 AM)
Low34 °F (Oct 24, 7:30 AM)37% (Oct 24, 4:00 PM)29.68 "Hg (Oct 12, 6:30 PM)
Average58 °F78%30.04 "Hg
* Reported Oct 10 4:00 AM — Oct 25 4:00 AM, Rodez, Weather by CustomWeather, © 2014

Note: Actual official high and low records may vary slightly from our data, if they occured in-between our weather recording intervals... More about our weather records

Advertising

Rodez weather history for previous 24 hours

 ConditionsComfort  
Time TempWeatherWind HumidityBarometerVisibility
4:00 AM
Oct 25
43 °FClear.No wind87%30.12 "HgN/A
3:30 AM45 °FClear.No wind87%30.12 "HgN/A
3:00 AM43 °FClear.No wind93%30.12 "HgN/A
2:30 AM43 °FClear.No wind93%30.12 "HgN/A
2:00 AM43 °FClear.No wind93%30.12 "HgN/A
1:30 AM45 °FClear.No wind81%30.12 "HgN/A
1:00 AM45 °FClear.No wind87%30.12 "HgN/A
12:30 AM46 °FClear.1 mph82%30.12 "HgN/A
12:00 AM46 °FClear.1 mph82%30.12 "HgN/A
11:30 PM
Oct 24
46 °FClear.No wind82%30.12 "HgN/A
11:00 PM48 °FClear.1 mph76%30.12 "HgN/A
10:30 PM48 °FClear.2 mph76%30.12 "HgN/A
10:00 PM50 °FClear.1 mph76%30.12 "HgN/A
9:30 PM48 °FClear.2 mph76%30.12 "HgN/A
9:00 PM50 °FClear.2 mph76%30.12 "HgN/A
8:30 PM50 °FClear.2 mph76%30.12 "HgN/A
8:00 PM52 °FClear.No wind72%30.12 "HgN/A
7:30 PM54 °FClear.2 mph63%30.12 "HgN/A
7:00 PM55 °FClear.3 mph59%30.12 "HgN/A
6:30 PM59 °FClear.5 mph55%30.09 "HgN/A
6:00 PM61 °FClear.6 mph52%30.09 "HgN/A
5:30 PM61 °FClear.6 mph52%30.09 "HgN/A
5:00 PM63 °FClear.6 mph45%30.09 "HgN/A
4:30 PM63 °FClear.6 mph42%30.09 "HgN/A
4:00 PM63 °FClear.5 mph37%30.09 "HgN/A
3:30 PM61 °FClear.5 mph39%30.09 "HgN/A
3:00 PM61 °FClear.6 mph45%30.09 "HgN/A
2:30 PM59 °FClear.7 mph51%30.12 "HgN/A
2:00 PM59 °FClear.7 mph48%30.12 "HgN/A
1:30 PM59 °FClear.5 mph59%30.12 "HgN/A
1:00 PM57 °FClear.5 mph63%30.12 "HgN/A
12:30 PM57 °FClear.2 mph59%30.12 "HgN/A
12:00 PM54 °FClear.No wind67%30.15 "HgN/A
11:30 AM54 °FClear.2 mph67%30.15 "HgN/A
11:00 AM52 °FClear.1 mph67%30.15 "HgN/A
10:30 AM46 °FClear.No wind87%30.15 "HgN/A
10:00 AM45 °FClear.2 mph87%30.12 "HgN/A
9:30 AM41 °FClear.2 mph93%30.12 "Hg6 mi
9:00 AM36 °FClear.2 mph93%30.12 "HgN/A
8:30 AM34 °FClear.2 mph93%30.12 "HgN/A
8:00 AM34 °FClear.3 mph100%30.12 "HgN/A
7:30 AM34 °FLight fog.No wind100%30.12 "HgN/A
7:00 AM36 °FClear.2 mph93%30.12 "Hg6 mi
6:30 AM36 °FClear.2 mph93%30.12 "Hg4 mi
6:00 AM36 °FClear.No wind93%30.12 "HgN/A
5:30 AM37 °FFog.2 mph93%30.12 "Hg1 mi
4:30 AM41 °FClear.1 mph93%30.15 "Hg4 mi
4:00 AM43 °FClear.5 mph93%30.15 "HgN/A
Weather by CustomWeather, © 2014

See weather overviewHow to use our weather pages